Time,TemperatureF,DewpointF,PressureIn,WindDirection,WindDirectionDegrees,WindSpeedMPH,WindSpeedGustMPH,Humidity,HourlyPrecipIn,Conditions,Clouds,dailyrainin,SolarRadiationWatts/m^2,SoftwareType,DateUTC
2013-05-19 00:02:00,73.3,69.9,29.94,SSW,202,0.0,10.0,89,0.00,,,0.00,0,Wunderground v.1.15,2013-05-19 05:02:00,
2013-05-19 00:07:00,73.1,69.7,29.94,SSE,150,0.0,10.0,89,0.00,,,0.00,0,Wunderground v.1.15,2013-05-19 05:07:00,
2013-05-19 00:13:00,73.0,69.6,29.94,South,187,0.0,10.0,89,0.00,,,0.00,0,Wunderground v.1.15,2013-05-19 05:13:00,
2013-05-19 00:18:00,72.8,69.7,29.94,SSW,195,0.0,10.0,90,0.00,,,0.00,0,Wunderground v.1.15,2013-05-19 05:18:00,
2013-05-19 00:23:00,72.7,69.6,29.94,SSW,192,0.0,10.0,90,0.00,,,0.00,0,Wunderground v.1.15,2013-05-19 05:23:00,
2013-05-19 00:28:00,72.6,69.5,29.94,SSE,155,0.0,10.0,90,0.00,,,0.00,0,Wunderground v.1.15,2013-05-19 05:28:00,
2013-05-19 00:34:00,72.4,69.3,29.94,South,186,0.0,10.0,90,0.00,,,0.00,0,Wunderground v.1.15,2013-05-19 05:34:00,
2013-05-19 00:39:00,72.3,69.5,29.94,South,190,0.0,10.0,91,0.00,,,0.00,0,Wunderground v.1.15,2013-05-19 05:39:00,
2013-05-19 00:44:00,72.2,69.4,29.94,South,185,0.0,10.0,91,0.00,,,0.00,0,Wunderground v.1.15,2013-05-19 05:44:00,
2013-05-19 00:49:00,72.0,69.2,29.94,South,182,0.0,10.0,91,0.00,,,0.00,0,Wunderground v.1.15,2013-05-19 05:49:00,
2013-05-19 00:55:00,71.9,69.1,29.94,SW,215,0.0,10.0,91,0.00,,,0.00,0,Wunderground v.1.15,2013-05-19 05:55:00,
2013-05-19 01:01:00,71.8,69.0,29.93,SSW,202,0.0,1.0,91,0.00,,,0.00,0,Wunderground v.1.15,2013-05-19 06:01:00,
2013-05-19 01:06:00,71.7,69.3,29.94,South,179,0.0,1.0,92,0.00,,,0.00,0,Wunderground v.1.15,2013-05-19 06:06:00,
2013-05-19 01:16:00,71.5,69.1,29.93,SW,229,0.0,1.0,92,0.00,,,0.00,0,Wunderground v.1.15,2013-05-19 06:16:00,
2013-05-19 01:21:00,71.3,68.9,29.93,SSW,210,0.0,1.0,92,0.00,,,0.00,0,Wunderground v.1.15,2013-05-19 06:21:00,
2013-05-19 01:26:00,71.3,68.9,29.93,SW,219,0.0,1.0,92,0.00,,,0.00,0,Wunderground v.1.15,2013-05-19 06:26:00,
2013-05-19 01:31:00,71.2,68.8,29.93,SSW,194,0.0,1.0,92,0.00,,,0.00,0,Wunderground v.1.15,2013-05-19 06:31:00,
2013-05-19 01:36:00,71.1,69.0,29.93,SSW,199,0.0,2.0,93,0.00,,,0.00,0,Wunderground v.1.15,2013-05-19 06:36:00,
2013-05-19 01:41:00,71.0,68.9,29.93,SSW,198,0.0,1.0,93,0.00,,,0.00,0,Wunderground v.1.15,2013-05-19 06:41:00,
2013-05-19 01:46:00,70.8,68.7,29.93,South,190,0.0,1.0,93,0.00,,,0.00,0,Wunderground v.1.15,2013-05-19 06:46:00,
2013-05-19 01:52:00,70.7,68.6,29.93,SSW,193,0.0,1.0,93,0.00,,,0.00,0,Wunderground v.1.15,2013-05-19 06:52:00,
2013-05-19 01:57:00,70.6,68.5,29.93,SSW,196,0.0,1.0,93,0.00,,,0.00,0,Wunderground v.1.15,2013-05-19 06:57:00,
2013-05-19 02:02:00,70.5,68.7,29.93,SSW,196,0.0,1.0,94,0.00,,,0.00,0,Wunderground v.1.15,2013-05-19 07:02:00,
2013-05-19 02:07:00,70.4,68.6,29.93,SSW,197,0.0,1.0,94,0.00,,,0.00,0,Wunderground v.1.15,2013-05-19 07:07:00,
2013-05-19 02:12:00,70.3,68.5,29.92,SSW,196,0.0,1.0,94,0.00,,,0.00,0,Wunderground v.1.15,2013-05-19 07:12:00,
2013-05-19 02:18:00,70.3,68.5,29.93,South,190,0.0,1.0,94,0.00,,,0.00,0,Wunderground v.1.15,2013-05-19 07:18:00,
2013-05-19 02:23:00,70.2,68.4,29.92,SSW,196,0.0,1.0,94,0.00,,,0.00,0,Wunderground v.1.15,2013-05-19 07:23:00,
2013-05-19 02:28:00,70.2,68.7,29.93,South,183,1.0,3.0,95,0.00,,,0.00,0,Wunderground v.1.15,2013-05-19 07:28:00,
2013-05-19 02:33:00,70.2,68.7,29.93,SSW,196,0.0,1.0,95,0.00,,,0.00,0,Wunderground v.1.15,2013-05-19 07:33:00,
2013-05-19 02:39:00,70.1,68.6,29.93,SSW,196,0.0,1.0,95,0.00,,,0.00,0,Wunderground v.1.15,2013-05-19 07:39:00,
2013-05-19 02:44:00,70.1,68.6,29.93,SSW,197,0.0,4.0,95,0.00,,,0.00,0,Wunderground v.1.15,2013-05-19 07:44:00,
2013-05-19 02:49:00,70.1,68.6,29.93,SSW,196,0.0,4.0,95,0.00,,,0.00,0,Wunderground v.1.15,2013-05-19 07:49:00,
2013-05-19 02:55:00,70.0,68.5,29.93,SSW,195,0.0,1.0,95,0.00,,,0.00,0,Wunderground v.1.15,2013-05-19 07:55:00,
2013-05-19 03:00:00,69.9,68.4,29.93,SSW,200,0.0,1.0,95,0.00,,,0.00,0,Wunderground v.1.15,2013-05-19 08:00:00,
2013-05-19 03:06:00,69.9,68.4,29.93,SSW,200,0.0,1.0,95,0.00,,,0.00,0,Wunderground v.1.15,2013-05-19 08:06:00,
2013-05-19 03:11:00,69.8,68.6,29.94,SSW,200,0.0,1.0,96,0.00,,,0.00,0,Wunderground v.1.15,2013-05-19 08:11:00,
2013-05-19 03:16:00,69.8,68.6,29.94,SSW,200,0.0,1.0,96,0.00,,,0.00,0,Wunderground v.1.15,2013-05-19 08:16:00,
2013-05-19 03:21:00,69.7,68.5,29.94,SSW,198,0.0,1.0,96,0.00,,,0.00,0,Wunderground v.1.15,2013-05-19 08:21:00,
2013-05-19 03:26:00,69.7,68.5,29.94,SSW,195,0.0,1.0,96,0.00,,,0.00,0,Wunderground v.1.15,2013-05-19 08:26:00,
2013-05-19 03:32:00,69.7,68.5,29.94,South,190,0.0,1.0,96,0.00,,,0.00,0,Wunderground v.1.15,2013-05-19 08:32:00,
2013-05-19 03:37:00,69.7,68.5,29.94,South,181,0.0,1.0,96,0.00,,,0.00,0,Wunderground v.1.15,2013-05-19 08:37:00,
2013-05-19 03:42:00,69.6,68.4,29.94,South,185,0.0,1.0,96,0.00,,,0.00,0,Wunderground v.1.15,2013-05-19 08:42:00,
2013-05-19 03:47:00,69.6,68.4,29.95,South,185,0.0,1.0,96,0.00,,,0.00,0,Wunderground v.1.15,2013-05-19 08:47:00,
2013-05-19 03:52:00,69.6,68.4,29.95,South,185,0.0,1.0,96,0.00,,,0.00,0,Wunderground v.1.15,2013-05-19 08:52:00,
2013-05-19 03:58:00,69.6,68.4,29.95,South,185,0.0,1.0,96,0.00,,,0.00,0,Wunderground v.1.15,2013-05-19 08:58:00,
2013-05-19 04:03:00,69.5,68.3,29.95,South,185,0.0,1.0,96,0.00,,,0.00,0,Wunderground v.1.15,2013-05-19 09:03:00,
2013-05-19 04:08:00,69.5,68.3,29.95,South,185,0.0,1.0,96,0.00,,,0.00,0,Wunderground v.1.15,2013-05-19 09:08:00,
2013-05-19 04:13:00,69.5,68.3,29.96,South,185,0.0,1.0,96,0.00,,,0.00,0,Wunderground v.1.15,2013-05-19 09:13:00,
2013-05-19 04:19:00,69.5,68.3,29.96,South,185,0.0,1.0,96,0.00,,,0.00,0,Wunderground v.1.15,2013-05-19 09:19:00,
2013-05-19 04:24:00,69.4,68.2,29.95,South,185,0.0,1.0,96,0.00,,,0.00,0,Wunderground v.1.15,2013-05-19 09:24:00,
2013-05-19 04:29:00,69.4,68.5,29.95,South,185,0.0,1.0,97,0.00,,,0.00,0,Wunderground v.1.15,2013-05-19 09:29:00,
2013-05-19 04:35:00,69.4,68.5,29.95,South,173,0.0,1.0,97,0.00,,,0.00,0,Wunderground v.1.15,2013-05-19 09:35:00,
2013-05-19 04:41:00,69.4,68.5,29.95,South,173,0.0,1.0,97,0.00,,,0.00,0,Wunderground v.1.15,2013-05-19 09:41:00,
2013-05-19 04:46:00,69.4,68.5,29.94,South,173,0.0,1.0,97,0.00,,,0.00,0,Wunderground v.1.15,2013-05-19 09:46:00,
2013-05-19 04:52:00,69.4,68.5,29.95,South,173,0.0,1.0,97,0.00,,,0.00,0,Wunderground v.1.15,2013-05-19 09:52:00,
2013-05-19 04:57:00,69.5,68.6,29.94,SSE,166,0.0,1.0,97,0.00,,,0.00,0,Wunderground v.1.15,2013-05-19 09:57:00,
2013-05-19 05:02:00,69.5,68.6,29.94,SSE,166,0.0,1.0,97,0.00,,,0.00,0,Wunderground v.1.15,2013-05-19 10:02:00,
2013-05-19 05:07:00,69.6,68.7,29.94,SSE,165,0.0,1.0,97,0.00,,,0.00,0,Wunderground v.1.15,2013-05-19 10:07:00,
2013-05-19 05:12:00,69.6,68.7,29.94,SSE,165,0.0,1.0,97,0.00,,,0.00,0,Wunderground v.1.15,2013-05-19 10:12:00,
2013-05-19 05:18:00,69.7,68.8,29.94,SSE,156,0.0,3.0,97,0.00,,,0.00,0,Wunderground v.1.15,2013-05-19 10:18:00,
2013-05-19 05:23:00,69.8,68.9,29.94,South,170,0.0,1.0,97,0.00,,,0.00,0,Wunderground v.1.15,2013-05-19 10:23:00,
2013-05-19 05:28:00,69.9,69.0,29.95,SE,142,0.0,1.0,97,0.00,,,0.00,0,Wunderground v.1.15,2013-05-19 10:28:00,
2013-05-19 05:33:00,69.9,69.0,29.94,SE,143,0.0,1.0,97,0.00,,,0.00,0,Wunderground v.1.15,2013-05-19 10:33:00,
2013-05-19 05:38:00,70.0,69.1,29.94,SE,143,0.0,1.0,97,0.00,,,0.00,0,Wunderground v.1.15,2013-05-19 10:38:00,
2013-05-19 05:44:00,70.0,69.1,29.94,SE,144,0.0,1.0,97,0.00,,,0.00,0,Wunderground v.1.15,2013-05-19 10:44:00,
2013-05-19 05:49:00,70.1,69.2,29.94,SSW,197,0.0,1.0,97,0.00,,,0.00,0,Wunderground v.1.15,2013-05-19 10:49:00,
2013-05-19 05:54:00,70.1,69.2,29.94,South,173,0.0,1.0,97,0.00,,,0.00,0,Wunderground v.1.15,2013-05-19 10:54:00,
2013-05-19 05:59:00,70.2,69.6,29.94,South,172,0.0,3.0,98,0.00,,,0.00,0,Wunderground v.1.15,2013-05-19 10:59:00,
2013-05-19 06:05:00,70.3,69.7,29.94,SSE,165,0.0,2.0,98,0.00,,,0.00,0,Wunderground v.1.15,2013-05-19 11:05:00,
2013-05-19 06:10:00,70.4,69.8,29.94,SSE,150,0.0,1.0,98,0.00,,,0.00,0,Wunderground v.1.15,2013-05-19 11:10:00,
2013-05-19 06:15:00,70.5,69.9,29.94,SSE,150,0.0,1.0,98,0.00,,,0.00,0,Wunderground v.1.15,2013-05-19 11:15:00,
2013-05-19 06:20:00,70.6,70.0,29.94,SSE,165,0.0,1.0,98,0.00,,,0.00,5,Wunderground v.1.15,2013-05-19 11:20:00,
2013-05-19 06:25:00,70.7,70.1,29.95,SSE,160,0.0,2.0,98,0.00,,,0.00,7,Wunderground v.1.15,2013-05-19 11:25:00,
2013-05-19 06:30:00,70.8,70.2,29.95,South,176,0.0,1.0,98,0.00,,,0.00,9,Wunderground v.1.15,2013-05-19 11:30:00,
2013-05-19 06:36:00,70.9,70.3,29.95,South,188,0.0,4.0,98,0.00,,,0.00,11,Wunderground v.1.15,2013-05-19 11:36:00,
2013-05-19 06:41:00,71.0,70.4,29.95,South,188,0.0,1.0,98,0.00,,,0.00,14,Wunderground v.1.15,2013-05-19 11:41:00,
2013-05-19 06:46:00,71.1,70.5,29.96,South,185,0.0,2.0,98,0.00,,,0.00,14,Wunderground v.1.15,2013-05-19 11:46:00,
2013-05-19 06:52:00,71.1,70.5,29.96,SSW,195,0.0,3.0,98,0.00,,,0.00,18,Wunderground v.1.15,2013-05-19 11:52:00,
2013-05-19 06:57:00,71.1,70.5,29.96,South,182,0.0,3.0,98,0.00,,,0.00,21,Wunderground v.1.15,2013-05-19 11:57:00,
2013-05-19 07:02:00,71.2,70.6,29.96,SSE,159,0.0,1.0,98,0.00,,,0.00,33,Wunderground v.1.15,2013-05-19 12:02:00,
2013-05-19 07:07:00,71.3,70.7,29.96,SSE,150,0.0,2.0,98,0.00,,,0.00,26,Wunderground v.1.15,2013-05-19 12:07:00,
2013-05-19 07:13:00,71.3,70.7,29.96,SSE,157,0.0,1.0,98,0.00,,,0.00,30,Wunderground v.1.15,2013-05-19 12:13:00,
2013-05-19 07:18:00,71.4,70.8,29.96,SSW,202,0.0,3.0,98,0.00,,,0.00,28,Wunderground v.1.15,2013-05-19 12:18:00,
2013-05-19 07:23:00,71.6,71.0,29.96,SE,134,1.0,1.0,98,0.00,,,0.00,33,Wunderground v.1.15,2013-05-19 12:23:00,
2013-05-19 07:28:00,71.7,71.1,29.96,SE,135,0.0,1.0,98,0.00,,,0.00,47,Wunderground v.1.15,2013-05-19 12:28:00,
2013-05-19 07:34:00,71.7,71.1,29.97,SSE,163,0.0,1.0,98,0.00,,,0.00,37,Wunderground v.1.15,2013-05-19 12:34:00,
2013-05-19 07:39:00,71.8,71.2,29.97,SSE,161,0.0,4.0,98,0.00,,,0.00,54,Wunderground v.1.15,2013-05-19 12:39:00,
2013-05-19 07:44:00,71.9,71.3,29.96,SSE,154,0.0,1.0,98,0.00,,,0.00,49,Wunderground v.1.15,2013-05-19 12:44:00,
2013-05-19 07:49:00,71.9,71.3,29.96,South,183,0.0,2.0,98,0.00,,,0.00,62,Wunderground v.1.15,2013-05-19 12:49:00,
2013-05-19 07:54:00,72.0,71.1,29.96,SSW,198,1.0,4.0,97,0.00,,,0.00,58,Wunderground v.1.15,2013-05-19 12:54:00,
2013-05-19 08:00:00,72.2,71.3,29.96,South,181,1.0,1.0,97,0.00,,,0.00,69,Wunderground v.1.15,2013-05-19 13:00:00,
2013-05-19 08:05:00,72.2,71.3,29.96,South,179,1.0,4.0,97,0.00,,,0.00,76,Wunderground v.1.15,2013-05-19 13:05:00,
2013-05-19 08:10:00,72.3,71.4,29.96,SSW,206,1.0,1.0,97,0.00,,,0.00,69,Wunderground v.1.15,2013-05-19 13:10:00,
2013-05-19 08:15:00,72.5,71.6,29.97,SSW,193,0.0,1.0,97,0.00,,,0.00,109,Wunderground v.1.15,2013-05-19 13:15:00,
2013-05-19 08:20:00,72.6,71.7,29.97,SSW,192,1.0,1.0,97,0.00,,,0.00,102,Wunderground v.1.15,2013-05-19 13:20:00,
2013-05-19 08:26:00,72.7,71.5,29.97,SSE,148,1.0,6.0,96,0.00,,,0.00,86,Wunderground v.1.15,2013-05-19 13:26:00,
2013-05-19 08:31:00,72.8,71.6,29.97,South,181,1.0,1.0,96,0.00,,,0.00,104,Wunderground v.1.15,2013-05-19 13:31:00,
2013-05-19 08:36:00,73.0,71.8,29.97,South,169,2.0,7.0,96,0.00,,,0.00,132,Wunderground v.1.15,2013-05-19 13:36:00,
2013-05-19 08:41:00,73.1,71.6,29.97,SSW,196,2.0,2.0,95,0.00,,,0.00,76,Wunderground v.1.15,2013-05-19 13:41:00,
2013-05-19 08:47:00,73.3,71.8,29.97,SSW,201,1.0,2.0,95,0.00,,,0.00,76,Wunderground v.1.15,2013-05-19 13:47:00,
2013-05-19 08:52:00,73.4,71.9,29.97,SSW,198,1.0,1.0,95,0.00,,,0.00,137,Wunderground v.1.15,2013-05-19 13:52:00,
2013-05-19 08:57:00,73.6,72.1,29.97,SSW,196,1.0,1.0,95,0.00,,,0.00,107,Wunderground v.1.15,2013-05-19 13:57:00,
2013-05-19 09:03:00,73.8,72.3,29.97,SSW,203,1.0,1.0,95,0.00,,,0.00,167,Wunderground v.1.15,2013-05-19 14:03:00,
2013-05-19 09:08:00,74.2,72.4,29.97,SSW,211,1.0,5.0,94,0.00,,,0.00,265,Wunderground v.1.15,2013-05-19 14:08:00,
2013-05-19 09:13:00,74.6,72.4,29.97,SSW,205,1.0,4.0,93,0.00,,,0.00,322,Wunderground v.1.15,2013-05-19 14:13:00,
2013-05-19 09:18:00,75.0,72.5,29.97,SW,219,2.0,4.0,92,0.00,,,0.00,167,Wunderground v.1.15,2013-05-19 14:18:00,
2013-05-19 09:24:00,75.3,72.5,29.97,SSE,156,1.0,1.0,91,0.00,,,0.00,281,Wunderground v.1.15,2013-05-19 14:24:00,
2013-05-19 09:29:00,75.7,72.9,29.97,WSW,243,1.0,1.0,91,0.00,,,0.00,403,Wunderground v.1.15,2013-05-19 14:29:00,
2013-05-19 09:34:00,76.4,72.9,29.97,SSE,152,1.0,8.0,89,0.00,,,0.00,740,Wunderground v.1.15,2013-05-19 14:34:00,
2013-05-19 09:40:00,77.1,72.6,29.97,SSE,159,1.0,4.0,86,0.00,,,0.00,313,Wunderground v.1.15,2013-05-19 14:40:00,
2013-05-19 09:45:00,76.9,72.4,29.97,WSW,248,1.0,4.0,86,0.00,,,0.00,290,Wunderground v.1.15,2013-05-19 14:45:00,
2013-05-19 09:50:00,76.8,72.3,29.96,WSW,249,1.0,1.0,86,0.00,,,0.00,701,Wunderground v.1.15,2013-05-19 14:50:00,
2013-05-19 09:55:00,77.1,72.2,29.96,South,185,1.0,4.0,85,0.00,,,0.00,515,Wunderground v.1.15,2013-05-19 14:55:00,
2013-05-19 10:00:00,77.3,72.1,29.97,SSW,201,2.0,4.0,84,0.00,,,0.00,306,Wunderground v.1.15,2013-05-19 15:00:00,
2013-05-19 10:05:00,77.5,71.9,29.96,South,185,2.0,5.0,83,0.00,,,0.00,383,Wunderground v.1.15,2013-05-19 15:05:00,
2013-05-19 10:11:00,77.6,72.0,29.96,SSE,150,2.0,3.0,83,0.00,,,0.00,281,Wunderground v.1.15,2013-05-19 15:11:00,
2013-05-19 10:16:00,77.7,72.1,29.96,SSE,168,1.0,5.0,83,0.00,,,0.00,315,Wunderground v.1.15,2013-05-19 15:16:00,
2013-05-19 10:21:00,77.7,72.1,29.96,SSW,192,1.0,1.0,83,0.00,,,0.00,329,Wunderground v.1.15,2013-05-19 15:21:00,
2013-05-19 10:26:00,77.8,72.2,29.96,SSE,159,0.0,1.0,83,0.00,,,0.00,367,Wunderground v.1.15,2013-05-19 15:26:00,
2013-05-19 10:32:00,77.9,72.7,29.97,South,188,0.0,1.0,84,0.00,,,0.00,455,Wunderground v.1.15,2013-05-19 15:32:00,
2013-05-19 10:37:00,78.2,72.6,29.97,SE,145,1.0,1.0,83,0.00,,,0.00,584,Wunderground v.1.15,2013-05-19 15:37:00,
2013-05-19 10:42:00,78.7,73.1,29.97,SE,146,0.0,1.0,83,0.00,,,0.00,610,Wunderground v.1.15,2013-05-19 15:42:00,
2013-05-19 10:47:00,78.9,72.9,29.97,SE,136,0.0,1.0,82,0.00,,,0.00,373,Wunderground v.1.15,2013-05-19 15:47:00,
2013-05-19 10:52:00,78.9,72.6,29.97,SE,138,1.0,1.0,81,0.00,,,0.00,657,Wunderground v.1.15,2013-05-19 15:52:00,
2013-05-19 10:58:00,79.0,73.0,29.97,SE,143,1.0,1.0,82,0.00,,,0.00,468,Wunderground v.1.15,2013-05-19 15:58:00,
2013-05-19 11:03:00,79.1,72.8,29.97,SW,221,0.0,1.0,81,0.00,,,0.00,721,Wunderground v.1.15,2013-05-19 16:03:00,
2013-05-19 11:08:00,79.6,72.5,29.97,SSW,212,0.0,3.0,79,0.00,,,0.00,316,Wunderground v.1.15,2013-05-19 16:08:00,
2013-05-19 11:13:00,80.0,73.6,29.97,SSW,212,0.0,1.0,81,0.00,,,0.00,250,Wunderground v.1.15,2013-05-19 16:13:00,
2013-05-19 11:19:00,80.0,72.9,29.98,SSW,193,0.0,4.0,79,0.00,,,0.00,243,Wunderground v.1.15,2013-05-19 16:19:00,
2013-05-19 11:24:00,79.8,72.3,29.98,SSW,201,1.0,1.0,78,0.00,,,0.00,320,Wunderground v.1.15,2013-05-19 16:24:00,
2013-05-19 11:29:00,80.0,72.1,29.98,South,173,0.0,1.0,77,0.00,,,0.00,1269,Wunderground v.1.15,2013-05-19 16:29:00,
2013-05-19 11:34:00,80.5,73.4,29.98,South,173,0.0,1.0,79,0.00,,,0.00,320,Wunderground v.1.15,2013-05-19 16:34:00,
2013-05-19 11:40:00,80.8,72.9,29.97,South,185,0.0,1.0,77,0.00,,,0.00,610,Wunderground v.1.15,2013-05-19 16:40:00,
2013-05-19 11:45:00,80.9,72.2,29.97,SE,133,1.0,1.0,75,0.00,,,0.00,422,Wunderground v.1.15,2013-05-19 16:45:00,
2013-05-19 11:50:00,81.0,73.1,29.97,SW,215,1.0,1.0,77,0.00,,,0.00,404,Wunderground v.1.15,2013-05-19 16:50:00,
2013-05-19 11:56:00,81.0,73.1,29.97,SW,222,2.0,7.0,77,0.00,,,0.00,557,Wunderground v.1.15,2013-05-19 16:56:00,
2013-05-19 12:02:00,81.1,72.4,29.97,SW,234,2.0,2.0,75,0.00,,,0.00,272,Wunderground v.1.15,2013-05-19 17:02:00,
2013-05-19 12:07:00,81.1,72.0,29.96,SSW,208,1.0,4.0,74,0.00,,,0.00,452,Wunderground v.1.15,2013-05-19 17:07:00,
2013-05-19 12:13:00,81.4,72.3,29.96,SW,229,1.0,1.0,74,0.00,,,0.00,348,Wunderground v.1.15,2013-05-19 17:13:00,
2013-05-19 12:18:00,81.8,72.7,29.96,SSE,149,1.0,8.0,74,0.00,,,0.00,882,Wunderground v.1.15,2013-05-19 17:18:00,
2013-05-19 12:24:00,82.1,72.6,29.96,South,179,1.0,1.0,73,0.00,,,0.00,571,Wunderground v.1.15,2013-05-19 17:24:00,
2013-05-19 12:29:00,82.2,72.7,29.96,SW,232,1.0,5.0,73,0.00,,,0.00,290,Wunderground v.1.15,2013-05-19 17:29:00,
2013-05-19 12:34:00,82.3,73.2,29.95,South,181,1.0,5.0,74,0.00,,,0.00,461,Wunderground v.1.15,2013-05-19 17:34:00,
2013-05-19 12:40:00,82.4,72.9,29.95,South,188,1.0,1.0,73,0.00,,,0.00,411,Wunderground v.1.15,2013-05-19 17:40:00,
2013-05-19 12:46:00,82.5,72.6,29.95,SSW,199,1.0,1.0,72,0.00,,,0.00,306,Wunderground v.1.15,2013-05-19 17:46:00,
2013-05-19 12:51:00,82.5,73.4,29.95,SSE,168,1.0,1.0,74,0.00,,,0.00,995,Wunderground v.1.15,2013-05-19 17:51:00,
2013-05-19 12:57:00,82.7,72.3,29.95,SSW,200,1.0,2.0,71,0.00,,,0.00,628,Wunderground v.1.15,2013-05-19 17:57:00,
2013-05-19 13:02:00,83.1,72.7,29.95,South,188,1.0,9.0,71,0.00,,,0.00,1118,Wunderground v.1.15,2013-05-19 18:02:00,
2013-05-19 13:15:00,83.1,73.1,29.94,ESE,123,1.0,5.0,72,0.00,,,0.00,403,Wunderground v.1.15,2013-05-19 18:15:00,
2013-05-19 13:21:00,83.3,72.9,29.94,SSE,147,3.0,3.0,71,0.00,,,0.00,1069,Wunderground v.1.15,2013-05-19 18:21:00,
2013-05-19 13:27:00,83.5,72.3,29.94,SW,231,2.0,6.0,69,0.00,,,0.00,1102,Wunderground v.1.15,2013-05-19 18:27:00,
2013-05-19 13:33:00,83.2,72.4,29.94,SSW,200,1.0,3.0,70,0.00,,,0.00,315,Wunderground v.1.15,2013-05-19 18:33:00,
2013-05-19 13:40:00,83.1,72.7,29.94,SW,232,1.0,1.0,71,0.00,,,0.00,313,Wunderground v.1.15,2013-05-19 18:40:00,
2013-05-19 13:46:00,83.1,72.3,29.94,SW,218,1.0,3.0,70,0.00,,,0.00,508,Wunderground v.1.15,2013-05-19 18:46:00,
2013-05-19 13:51:00,83.2,73.2,29.94,WSW,249,1.0,6.0,72,0.00,,,0.00,1167,Wunderground v.1.15,2013-05-19 18:51:00,
2013-05-19 13:56:00,83.0,72.6,29.94,SW,214,1.0,9.0,71,0.00,,,0.00,241,Wunderground v.1.15,2013-05-19 18:56:00,
2013-05-19 14:02:00,83.0,73.4,29.94,SSE,157,0.0,1.0,73,0.00,,,0.00,287,Wunderground v.1.15,2013-05-19 19:02:00,
2013-05-19 14:07:00,83.1,73.1,29.94,SSW,198,0.0,4.0,72,0.00,,,0.00,1042,Wunderground v.1.15,2013-05-19 19:07:00,
2013-05-19 14:12:00,83.3,73.3,29.94,South,182,0.0,1.0,72,0.00,,,0.00,884,Wunderground v.1.15,2013-05-19 19:12:00,
2013-05-19 14:17:00,83.2,72.8,29.94,SSW,202,1.0,2.0,71,0.00,,,0.00,1111,Wunderground v.1.15,2013-05-19 19:17:00,
2013-05-19 14:23:00,83.7,73.3,29.93,SE,145,1.0,2.0,71,0.00,,,0.00,1102,Wunderground v.1.15,2013-05-19 19:23:00,
2013-05-19 14:28:00,83.6,72.8,29.93,SSE,159,1.0,4.0,70,0.00,,,0.00,309,Wunderground v.1.15,2013-05-19 19:28:00,
2013-05-19 14:33:00,83.5,73.5,29.93,SW,224,1.0,1.0,72,0.00,,,0.00,932,Wunderground v.1.15,2013-05-19 19:33:00,
2013-05-19 14:38:00,84.3,73.4,29.92,SW,216,0.0,1.0,70,0.00,,,0.00,381,Wunderground v.1.15,2013-05-19 19:38:00,
2013-05-19 14:43:00,84.3,72.6,29.92,SSE,153,0.0,1.0,68,0.00,,,0.00,287,Wunderground v.1.15,2013-05-19 19:43:00,
2013-05-19 14:49:00,84.1,72.8,29.92,SSE,163,0.0,1.0,69,0.00,,,0.00,905,Wunderground v.1.15,2013-05-19 19:49:00,
2013-05-19 14:54:00,84.8,73.9,29.92,SSE,164,0.0,1.0,70,0.00,,,0.00,239,Wunderground v.1.15,2013-05-19 19:54:00,
2013-05-19 15:00:00,84.7,73.0,29.92,SSE,156,0.0,1.0,68,0.00,,,0.00,311,Wunderground v.1.15,2013-05-19 20:00:00,
2013-05-19 15:05:00,84.7,73.4,29.92,SSW,193,0.0,4.0,69,0.00,,,0.00,877,Wunderground v.1.15,2013-05-19 20:05:00,
2013-05-19 15:10:00,85.2,73.4,29.92,SW,215,0.0,1.0,68,0.00,,,0.00,886,Wunderground v.1.15,2013-05-19 20:10:00,
2013-05-19 15:16:00,85.2,72.1,29.92,SW,215,1.0,3.0,65,0.00,,,0.00,322,Wunderground v.1.15,2013-05-19 20:16:00,
2013-05-19 15:21:00,85.1,72.9,29.92,South,173,1.0,1.0,67,0.00,,,0.00,940,Wunderground v.1.15,2013-05-19 20:21:00,
2013-05-19 15:27:00,85.0,72.8,29.92,South,183,0.0,1.0,67,0.00,,,0.00,223,Wunderground v.1.15,2013-05-19 20:27:00,
2013-05-19 15:38:00,84.7,72.5,29.91,SSW,203,1.0,5.0,67,0.00,,,0.00,213,Wunderground v.1.15,2013-05-19 20:38:00,
2013-05-19 15:43:00,84.8,73.1,29.91,South,171,1.0,7.0,68,0.00,,,0.00,823,Wunderground v.1.15,2013-05-19 20:43:00,
2013-05-19 15:49:00,85.0,72.4,29.91,SSE,168,0.0,8.0,66,0.00,,,0.00,179,Wunderground v.1.15,2013-05-19 20:49:00,
2013-05-19 15:55:00,84.9,73.6,29.91,SSW,197,0.0,1.0,69,0.00,,,0.00,802,Wunderground v.1.15,2013-05-19 20:55:00,
2013-05-19 16:02:00,85.3,72.6,29.91,SSE,151,0.0,3.0,66,0.00,,,0.00,751,Wunderground v.1.15,2013-05-19 21:02:00,
2013-05-19 16:11:00,85.7,73.9,29.91,South,177,0.0,1.0,68,0.00,,,0.00,728,Wunderground v.1.15,2013-05-19 21:11:00,
2013-05-19 16:16:00,85.8,73.6,29.90,SW,214,0.0,1.0,67,0.00,,,0.00,761,Wunderground v.1.15,2013-05-19 21:16:00,
2013-05-19 16:22:00,85.7,72.6,29.90,ESE,113,1.0,4.0,65,0.00,,,0.00,650,Wunderground v.1.15,2013-05-19 21:22:00,
2013-05-19 16:27:00,85.4,73.6,29.90,SSE,148,1.0,4.0,68,0.00,,,0.00,629,Wunderground v.1.15,2013-05-19 21:27:00,
2013-05-19 16:33:00,85.6,72.5,29.90,WSW,250,0.0,2.0,65,0.00,,,0.00,638,Wunderground v.1.15,2013-05-19 21:33:00,
2013-05-19 16:38:00,85.4,72.7,29.90,SSW,192,0.0,2.0,66,0.00,,,0.00,174,Wunderground v.1.15,2013-05-19 21:38:00,
2013-05-19 16:43:00,84.9,72.7,29.90,SSW,205,1.0,6.0,67,0.00,,,0.00,642,Wunderground v.1.15,2013-05-19 21:43:00,
2013-05-19 16:48:00,84.7,73.0,29.90,SSW,195,1.0,6.0,68,0.00,,,0.00,218,Wunderground v.1.15,2013-05-19 21:48:00,
2013-05-19 16:54:00,84.8,73.5,29.90,SSW,194,0.0,1.0,69,0.00,,,0.00,418,Wunderground v.1.15,2013-05-19 21:54:00,
2013-05-19 16:59:00,84.8,73.9,29.90,SW,214,0.0,1.0,70,0.00,,,0.00,526,Wunderground v.1.15,2013-05-19 21:59:00,
2013-05-19 17:05:00,84.8,74.3,29.89,SSE,163,0.0,3.0,71,0.00,,,0.00,490,Wunderground v.1.15,2013-05-19 22:05:00,
2013-05-19 17:10:00,84.7,73.0,29.89,SE,137,1.0,1.0,68,0.00,,,0.00,480,Wunderground v.1.15,2013-05-19 22:10:00,
2013-05-19 17:15:00,84.7,72.5,29.89,SE,137,1.0,1.0,67,0.00,,,0.00,464,Wunderground v.1.15,2013-05-19 22:15:00,
2013-05-19 17:20:00,84.8,72.6,29.90,SSW,213,0.0,1.0,67,0.00,,,0.00,450,Wunderground v.1.15,2013-05-19 22:20:00,
2013-05-19 17:26:00,85.0,72.4,29.90,SSW,207,0.0,1.0,66,0.00,,,0.00,462,Wunderground v.1.15,2013-05-19 22:26:00,
2013-05-19 17:31:00,85.4,73.2,29.89,South,183,1.0,1.0,67,0.00,,,0.00,431,Wunderground v.1.15,2013-05-19 22:31:00,
2013-05-19 17:36:00,85.4,71.8,29.89,South,176,1.0,5.0,64,0.00,,,0.00,394,Wunderground v.1.15,2013-05-19 22:36:00,
2013-05-19 17:41:00,85.1,72.5,29.90,SSE,167,1.0,1.0,66,0.00,,,0.00,373,Wunderground v.1.15,2013-05-19 22:41:00,
2013-05-19 17:46:00,84.9,72.7,29.90,SSW,210,1.0,1.0,67,0.00,,,0.00,339,Wunderground v.1.15,2013-05-19 22:46:00,
2013-05-19 17:52:00,84.3,72.6,29.89,South,169,1.0,1.0,68,0.00,,,0.00,322,Wunderground v.1.15,2013-05-19 22:52:00,
2013-05-19 17:57:00,84.0,72.7,29.89,SSE,162,0.0,1.0,69,0.00,,,0.00,327,Wunderground v.1.15,2013-05-19 22:57:00,
2013-05-19 18:02:00,83.9,73.1,29.89,South,183,0.0,1.0,70,0.00,,,0.00,323,Wunderground v.1.15,2013-05-19 23:02:00,
2013-05-19 18:07:00,84.1,73.3,29.89,SSW,195,0.0,1.0,70,0.00,,,0.00,308,Wunderground v.1.15,2013-05-19 23:07:00,
2013-05-19 18:12:00,84.2,73.3,29.89,SSW,194,0.0,7.0,70,0.00,,,0.00,330,Wunderground v.1.15,2013-05-19 23:12:00,
2013-05-19 18:18:00,84.0,72.7,29.89,South,185,1.0,7.0,69,0.00,,,0.00,281,Wunderground v.1.15,2013-05-19 23:18:00,
2013-05-19 18:23:00,83.8,73.0,29.90,SSW,192,1.0,6.0,70,0.00,,,0.00,267,Wunderground v.1.15,2013-05-19 23:23:00,
2013-05-19 18:28:00,83.6,72.8,29.90,SSW,200,0.0,6.0,70,0.00,,,0.00,244,Wunderground v.1.15,2013-05-19 23:28:00,
2013-05-19 18:34:00,83.5,73.1,29.89,South,184,0.0,1.0,71,0.00,,,0.00,195,Wunderground v.1.15,2013-05-19 23:34:00,
2013-05-19 18:39:00,83.3,72.9,29.89,SE,145,0.0,1.0,71,0.00,,,0.00,146,Wunderground v.1.15,2013-05-19 23:39:00,
2013-05-19 18:44:00,82.9,72.9,29.89,SSE,163,0.0,1.0,72,0.00,,,0.00,134,Wunderground v.1.15,2013-05-19 23:44:00,
2013-05-19 18:50:00,82.5,73.0,29.89,SE,146,0.0,1.0,73,0.00,,,0.00,72,Wunderground v.1.15,2013-05-19 23:50:00,
2013-05-19 18:55:00,82.1,73.0,29.89,SSE,163,0.0,1.0,74,0.00,,,0.00,58,Wunderground v.1.15,2013-05-19 23:55:00,
2013-05-19 19:01:00,81.6,72.9,29.90,SSE,162,0.0,1.0,75,0.00,,,0.00,53,Wunderground v.1.15,2013-05-20 00:01:00,
2013-05-19 19:06:00,81.4,73.1,29.90,SSE,163,0.0,1.0,76,0.00,,,0.00,70,Wunderground v.1.15,2013-05-20 00:06:00,
2013-05-19 19:11:00,81.2,72.9,29.90,SSE,161,0.0,1.0,76,0.00,,,0.00,58,Wunderground v.1.15,2013-05-20 00:11:00,
2013-05-19 19:16:00,81.0,73.1,29.90,SSE,161,0.0,1.0,77,0.00,,,0.00,47,Wunderground v.1.15,2013-05-20 00:16:00,
2013-05-19 19:22:00,80.7,73.2,29.90,SSE,161,0.0,1.0,78,0.00,,,0.00,35,Wunderground v.1.15,2013-05-20 00:22:00,
2013-05-19 19:27:00,80.5,73.0,29.90,SSE,161,0.0,1.0,78,0.00,,,0.00,26,Wunderground v.1.15,2013-05-20 00:27:00,
2013-05-19 19:32:00,80.2,73.1,29.90,SSE,161,0.0,1.0,79,0.00,,,0.00,19,Wunderground v.1.15,2013-05-20 00:32:00,
2013-05-19 19:38:00,79.8,72.7,29.90,SSE,161,0.0,1.0,79,0.00,,,0.00,14,Wunderground v.1.15,2013-05-20 00:38:00,
2013-05-19 19:44:00,79.6,73.3,29.90,SSE,163,0.0,1.0,81,0.00,,,0.00,11,Wunderground v.1.15,2013-05-20 00:44:00,
2013-05-19 19:50:00,79.2,72.9,29.90,SSE,163,0.0,1.0,81,0.00,,,0.00,5,Wunderground v.1.15,2013-05-20 00:50:00,
2013-05-19 19:55:00,78.9,72.9,29.90,SSE,163,0.0,1.0,82,0.00,,,0.00,0,Wunderground v.1.15,2013-05-20 00:55:00,
2013-05-19 20:00:00,78.7,72.7,29.90,SSE,163,0.0,1.0,82,0.00,,,0.00,0,Wunderground v.1.15,2013-05-20 01:00:00,
2013-05-19 20:05:00,78.4,72.8,29.90,SSE,163,0.0,1.0,83,0.00,,,0.00,0,Wunderground v.1.15,2013-05-20 01:05:00,
2013-05-19 20:10:00,78.1,72.5,29.90,SSE,158,0.0,1.0,83,0.00,,,0.00,0,Wunderground v.1.15,2013-05-20 01:10:00,
2013-05-19 20:16:00,77.9,72.7,29.90,SSE,160,0.0,1.0,84,0.00,,,0.00,0,Wunderground v.1.15,2013-05-20 01:16:00,
2013-05-19 20:21:00,77.8,72.6,29.91,ESE,121,0.0,1.0,84,0.00,,,0.00,0,Wunderground v.1.15,2013-05-20 01:21:00,
2013-05-19 20:27:00,77.6,72.7,29.91,ESE,114,0.0,1.0,85,0.00,,,0.00,0,Wunderground v.1.15,2013-05-20 01:27:00,
2013-05-19 20:32:00,77.5,72.6,29.91,ESE,113,1.0,8.0,85,0.00,,,0.00,0,Wunderground v.1.15,2013-05-20 01:32:00,
2013-05-19 20:37:00,77.5,72.6,29.91,SW,222,1.0,8.0,85,0.00,,,0.00,0,Wunderground v.1.15,2013-05-20 01:37:00,
2013-05-19 20:43:00,77.4,72.9,29.92,ESE,110,0.0,1.0,86,0.00,,,0.00,0,Wunderground v.1.15,2013-05-20 01:43:00,
2013-05-19 20:49:00,77.3,72.8,29.92,ESE,119,0.0,1.0,86,0.00,,,0.00,0,Wunderground v.1.15,2013-05-20 01:49:00,
2013-05-19 20:54:00,77.2,72.7,29.92,SSE,148,0.0,1.0,86,0.00,,,0.00,0,Wunderground v.1.15,2013-05-20 01:54:00,
2013-05-19 21:00:00,77.1,72.6,29.92,South,171,0.0,1.0,86,0.00,,,0.00,0,Wunderground v.1.15,2013-05-20 02:00:00,
2013-05-19 21:05:00,77.0,72.5,29.92,South,176,0.0,6.0,86,0.00,,,0.00,0,Wunderground v.1.15,2013-05-20 02:05:00,
2013-05-19 21:10:00,77.0,72.5,29.93,ESE,111,0.0,1.0,86,0.00,,,0.00,0,Wunderground v.1.15,2013-05-20 02:10:00,
2013-05-19 21:16:00,76.9,72.4,29.93,SE,145,1.0,5.0,86,0.00,,,0.00,0,Wunderground v.1.15,2013-05-20 02:16:00,
2013-05-19 21:21:00,76.8,72.6,29.92,SE,136,1.0,1.0,87,0.00,,,0.00,0,Wunderground v.1.15,2013-05-20 02:21:00,
2013-05-19 21:26:00,76.7,72.5,29.92,SSE,168,0.0,3.0,87,0.00,,,0.00,0,Wunderground v.1.15,2013-05-20 02:26:00,
2013-05-19 21:31:00,76.7,72.5,29.92,SSE,150,1.0,1.0,87,0.00,,,0.00,0,Wunderground v.1.15,2013-05-20 02:31:00,
2013-05-19 21:37:00,76.5,72.3,29.92,SSE,150,0.0,1.0,87,0.00,,,0.00,0,Wunderground v.1.15,2013-05-20 02:37:00,
2013-05-19 21:43:00,76.4,72.6,29.93,SSW,197,0.0,5.0,88,0.00,,,0.00,0,Wunderground v.1.15,2013-05-20 02:43:00,
2013-05-19 21:48:00,76.4,72.6,29.93,SE,142,0.0,5.0,88,0.00,,,0.00,0,Wunderground v.1.15,2013-05-20 02:48:00,
2013-05-19 21:53:00,76.2,72.4,29.93,SSE,164,0.0,1.0,88,0.00,,,0.00,0,Wunderground v.1.15,2013-05-20 02:53:00,
2013-05-19 21:58:00,76.1,72.3,29.93,SSE,154,0.0,1.0,88,0.00,,,0.00,0,Wunderground v.1.15,2013-05-20 02:58:00,
2013-05-19 22:03:00,76.0,72.2,29.93,SE,136,0.0,1.0,88,0.00,,,0.00,0,Wunderground v.1.15,2013-05-20 03:03:00,
2013-05-19 22:09:00,76.0,72.2,29.93,SSE,157,0.0,1.0,88,0.00,,,0.00,0,Wunderground v.1.15,2013-05-20 03:09:00,
2013-05-19 22:14:00,75.9,72.4,29.93,SE,135,0.0,4.0,89,0.00,,,0.00,0,Wunderground v.1.15,2013-05-20 03:14:00,
2013-05-19 22:19:00,75.9,72.4,29.94,SSW,194,1.0,6.0,89,0.00,,,0.00,0,Wunderground v.1.15,2013-05-20 03:19:00,
2013-05-19 22:25:00,75.9,72.4,29.93,SSE,151,1.0,1.0,89,0.00,,,0.00,0,Wunderground v.1.15,2013-05-20 03:25:00,
2013-05-19 22:31:00,75.7,72.2,29.94,South,169,0.0,1.0,89,0.00,,,0.00,0,Wunderground v.1.15,2013-05-20 03:31:00,
2013-05-19 22:36:00,75.6,72.1,29.94,SSE,163,0.0,1.0,89,0.00,,,0.00,0,Wunderground v.1.15,2013-05-20 03:36:00,
2013-05-19 22:42:00,75.5,72.4,29.94,South,170,0.0,1.0,90,0.00,,,0.00,0,Wunderground v.1.15,2013-05-20 03:42:00,
2013-05-19 22:47:00,75.4,72.3,29.94,South,185,0.0,2.0,90,0.00,,,0.00,0,Wunderground v.1.15,2013-05-20 03:47:00,
2013-05-19 22:52:00,75.3,72.2,29.94,South,171,0.0,5.0,90,0.00,,,0.00,0,Wunderground v.1.15,2013-05-20 03:52:00,
2013-05-19 22:57:00,75.3,72.2,29.94,SE,142,0.0,5.0,90,0.00,,,0.00,0,Wunderground v.1.15,2013-05-20 03:57:00,
2013-05-19 23:01:00,75.2,72.1,29.94,SE,142,0.0,1.0,90,0.00,,,0.00,0,Wunderground v.1.15,2013-05-20 04:01:00,
2013-05-19 23:02:00,75.1,72.3,29.94,SE,142,0.0,1.0,91,0.00,,,0.00,0,Wunderground v.1.15,2013-05-20 04:02:00,
2013-05-19 23:03:00,75.1,72.3,29.94,SE,143,0.0,1.0,91,0.00,,,0.00,0,Wunderground v.1.15,2013-05-20 04:03:00,
2013-05-19 23:05:00,75.1,72.3,29.94,SE,142,0.0,1.0,91,0.00,,,0.00,0,Wunderground v.1.15,2013-05-20 04:05:00,
2013-05-19 23:11:00,75.0,72.2,29.95,SSE,160,0.0,1.0,91,0.00,,,0.00,0,Wunderground v.1.15,2013-05-20 04:11:00,
2013-05-19 23:16:00,74.9,72.1,29.95,SSE,159,0.0,3.0,91,0.00,,,0.00,0,Wunderground v.1.15,2013-05-20 04:16:00,
2013-05-19 23:21:00,74.8,72.0,29.95,SSE,159,0.0,1.0,91,0.00,,,0.00,0,Wunderground v.1.15,2013-05-20 04:21:00,
2013-05-19 23:26:00,74.6,71.8,29.94,SE,143,0.0,1.0,91,0.00,,,0.00,0,Wunderground v.1.15,2013-05-20 04:26:00,
2013-05-19 23:32:00,74.4,71.9,29.94,SE,144,0.0,1.0,92,0.00,,,0.00,0,Wunderground v.1.15,2013-05-20 04:32:00,
2013-05-19 23:37:00,74.2,71.7,29.94,South,176,0.0,1.0,92,0.00,,,0.00,0,Wunderground v.1.15,2013-05-20 04:37:00,
2013-05-19 23:42:00,74.1,71.9,29.94,ESE,120,0.0,1.0,93,0.00,,,0.00,0,Wunderground v.1.15,2013-05-20 04:42:00,
2013-05-19 23:47:00,73.9,71.7,29.94,SE,141,0.0,3.0,93,0.00,,,0.00,0,Wunderground v.1.15,2013-05-20 04:47:00,
2013-05-19 23:53:00,73.8,71.6,29.94,SSE,154,1.0,1.0,93,0.00,,,0.00,0,Wunderground v.1.15,2013-05-20 04:53:00,
2013-05-19 23:58:00,73.7,71.9,29.93,South,187,0.0,1.0,94,0.00,,,0.00,0,Wunderground v.1.15,2013-05-20 04:58:00,